Temp
10 11 11 11 11 11 11 11 9 9 9 9 9 9 9 9 9 8 7 7 7 6 6 6 6 6 6 7 8 8 8 8 8 8 8 8 8 7 6 5 4 4 4
10 10 9 10 10 9 10 9 9 9 9 9 9 9 9 9 8 8 6 6 6 7 6 6 6 8 8 7 7 7 7 7 7 7 7 7 6 5 4 4 4 4 4
10 9 9 9 9 9 9 9 9 9 9 9 9 9 9 8 8 8 7 7 8 8 8 8 8 8 8 7 7 7 7 7 7 7 6 5 4 4 4 4 4 4 4
10 9 10 10 9 9 9 9 9 9 8 8 8 8 8 7 7 7 8 7 7 8 8 8 8 8 7 7 7 7 7 7 7 6 6 6 5 5 4 3 3 3 3
10 9 10 10 9 9 9 9 8 9 8 8 7 7 7 7 7 6 6 6 8 7 7 7 7 7 7 7 7 7 7 7 6 6 6 6 5 4 4 3 2 2 3
9 9 9 10 10 9 9 9 9 8 8 7 7 7 6 6 6 6 6 6 6 7 7 7 7 7 7 7 7 6 6 6 6 6 5 5 4 3 2 2 2 2 3
8 8 9 9 9 9 9 8 8 8 7 7 7 6 6 6 6 6 6 6 6 6 6 6 6 6 6 6 6 6 6 5 5 5 5 4 4 2 1 2 2 2 2
7 8 9 9 9 9 8 8 8 7 7 7 7 6 5 5 5 5 5 6 6 6 6 6 6 6 5 6 5 5 5 5 5 5 4 4 1 0 1 1 1 1 1
6 7 9 9 9 9 9 8 8 8 7 6 7 7 6 6 5 5 5 5 5 5 5 5 5 5 5 5 5 5 4 4 4 4 3 0 -0 0 0 0 0 0 0
6 6 8 8 9 8 9 8 8 8 9 8 7 7 8 8 6 5 5 5 4 4 4 4 4 4 4 4 4 4 3 3 3 3 1 -1 -1 -0 -1 -1 -1 -1 -0
7 5 7 8 8 8 8 9 8 8 8 8 8 8 8 7 7 7 5 4 4 4 4 3 3 3 3 3 3 4 3 2 2 2 -1 -2 -1 -2 -2 -2 -2 -1 -1
6 5 6 7 8 9 9 8 8 9 8 8 8 8 8 8 7 7 6 5 4 4 3 3 3 3 2 3 2 3 2 2 1 0 -1 -2 -3 -3 -3 -3 -2 -2 -2
6 5 6 7 8 8 8 8 8 8 8 8 7 7 7 7 7 7 6 5 5 3 3 3 2 2 2 2 2 2 2 1 0 -0 -1 -3 -4 -4 -4 -4 -3 -3 -3
6 7 7 7 7 8 8 8 8 8 8 7 7 7 7 7 6 6 6 5 4 3 3 2 2 1 1 1 1 1 0 -0 -0 -1 -2 -3 -5 -5 -5 -5 -4 -4 -4
6 7 7 7 6 7 7 8 7 7 7 7 6 6 6 6 6 5 5 5 4 4 3 2 1 1 1 0 -0 -0 -1 -1 -1 -2 -4 -3 -5 -6 -5 -5 -5 -5 -5
6 7 7 7 7 7 7 7 7 7 6 6 6 5 5 5 4 4 4 4 4 3 3 1 1 0 -0 -0 -1 -1 -2 -2 -2 -2 -3 -4 -4 -5 -6 -6 -6 -6 -6
7 7 7 7 6 6 6 6 6 6 5 5 5 4 5 4 3 3 3 3 3 2 2 2 0 -0 -0 -1 -2 -3 -3 -2 -2 -2 -3 -4 -5 -4 -3 -4 -5 -6 -6
6 6 6 6 5 5 5 5 5 5 4 4 3 3 3 2 3 3 3 2 2 2 1 0 -0 -0 -2 -3 -3 -2 -2 -3 -3 -3 -3 -4 -4 -3 -4 -5 -6 -6 -6
6 5 5 5 5 5 5 4 4 3 3 2 1 2 2 2 2 2 2 2 1 0 -1 -1 -1 -3 -4 -5 -5 -4 -4 -3 -3 -3 -3 -3 -3 -3 -4 -6 -7 -7 -7
5 4 4 5 4 4 4 3 2 2 2 1 2 2 2 2 2 2 2 1 0 -0 -1 -2 -4 -4 -5 -5 -5 -4 -2 -3 -3 -3 -3 -4 -4 -4 -5 -5 -6 -5 -6
5 4 4 4 3 3 2 2 2 2 2 2 3 2 2 2 1 1 0 -0 -1 -1 -2 -3 -4 -5 -5 -5 -5 -5 -5 -4 -3 -4 -4 -3 -4 -5 -6 -6 -5 -5 -7
3 3 3 2 2 1 1 2 2 3 3 2 2 2 1 1 1 0 -0 -1 -1 -3 -3 -4 -5 -5 -6 -6 -5 -6 -5 -5 -5 -5 -5 -4 -6 -6 -6 -5 -5 -5 -7
3 2 2 2 0 2 2 2 2 2 2 2 1 1 1 1 0 -0 -1 -1 -3 -4 -6 -5 -5 -5 -5 -6 -6 -5 -6 -6 -6 -6 -7 -5 -6 -5 -5 -5 -5 -6 -7
2 2 1 1 2 2 1 2 2 2 1 1 1 0 0 -1 -1 -2 -3 -4 -5 -5 -6 -6 -5 -6 -6 -6 -6 -7 -7 -6 -6 -6 -7 -7 -6 -6 -5 -5 -6 -7 -7
2 1 1 2 2 2 1 1 1 1 1 1 -0 -1 -1 -1 -2 -3 -3 -4 -4 -5 -5 -6 -6 -5 -6 -7 -9 -8 -8 -9 -9 -7 -8 -9 -8 -7 -7 -5 -6 -7 -7
2 1 1 1 1 1 0 0 1 1 0 -0 -1 -1 -2 -2 -2 -3 -3 -3 -4 -5 -5 -5 -6 -7 -8 -7 -8 -9 -9 -10 -10 -10 -8 -10 -10 -10 -10 -9 -7 -7 -8
Height
1512 1516 1518 1521 1525 1528 1531 1535 1538 1542 1545 1548 1550 1553 1554 1553 1554 1556 1559 1561 1562 1562 1563 1564 1564 1564 1563 1563 1563 1562 1562 1561 1559 1558 1557 1555 1554 1553 1551 1550 1548 1547 1545
1512 1515 1518 1520 1524 1528 1531 1534 1537 1541 1544 1547 1549 1552 1553 1552 1554 1556 1557 1559 1560 1561 1562 1563 1563 1563 1564 1564 1563 1562 1562 1560 1559 1558 1556 1555 1553 1552 1551 1549 1547 1546 1544
1508 1513 1516 1519 1523 1527 1531 1534 1536 1539 1542 1545 1548 1551 1553 1553 1553 1556 1557 1559 1561 1562 1562 1562 1563 1563 1563 1564 1563 1562 1561 1560 1559 1557 1556 1554 1553 1551 1550 1548 1546 1545 1543
1506 1509 1514 1517 1521 1524 1528 1532 1534 1537 1541 1545 1547 1550 1552 1553 1554 1555 1558 1560 1561 1562 1562 1562 1563 1563 1563 1563 1562 1561 1560 1559 1557 1556 1554 1552 1550 1548 1546 1544 1543 1541 1539
1504 1507 1511 1514 1518 1522 1525 1529 1533 1536 1539 1544 1548 1550 1552 1553 1555 1557 1558 1559 1560 1562 1563 1563 1563 1563 1563 1562 1561 1560 1558 1557 1555 1553 1552 1550 1547 1545 1543 1540 1538 1536 1535
1504 1503 1508 1511 1516 1520 1523 1527 1532 1536 1539 1542 1546 1550 1553 1554 1555 1557 1559 1561 1562 1562 1563 1563 1563 1563 1562 1561 1560 1558 1557 1555 1553 1550 1549 1546 1544 1542 1539 1538 1536 1534 1532
1508 1505 1505 1511 1514 1519 1521 1524 1529 1534 1538 1540 1542 1548 1553 1556 1556 1556 1557 1560 1561 1563 1563 1562 1562 1561 1561 1560 1559 1557 1554 1552 1550 1548 1545 1543 1540 1538 1537 1536 1534 1532 1528
1507 1505 1504 1510 1513 1518 1521 1522 1526 1530 1536 1539 1542 1545 1551 1557 1557 1557 1556 1558 1560 1562 1562 1562 1560 1560 1558 1557 1556 1555 1552 1549 1547 1545 1542 1539 1537 1535 1534 1532 1530 1527 1524
1497 1504 1505 1508 1512 1515 1519 1522 1524 1527 1532 1538 1540 1542 1546 1549 1553 1556 1556 1556 1558 1559 1560 1559 1558 1558 1557 1556 1555 1553 1550 1546 1544 1540 1538 1536 1534 1532 1530 1527 1523 1521 1518
1486 1504 1505 1506 1510 1514 1516 1520 1524 1526 1531 1534 1537 1539 1541 1543 1547 1551 1553 1554 1556 1555 1556 1556 1555 1554 1554 1553 1553 1550 1547 1543 1542 1537 1534 1533 1532 1530 1526 1522 1519 1516 1513
1485 1502 1500 1505 1508 1513 1515 1518 1522 1524 1530 1534 1536 1537 1539 1541 1543 1545 1548 1550 1554 1554 1554 1554 1553 1551 1552 1550 1549 1547 1544 1540 1538 1535 1532 1531 1529 1525 1521 1518 1515 1511 1509
1485 1499 1499 1502 1505 1510 1513 1517 1520 1522 1527 1531 1535 1536 1538 1537 1539 1544 1543 1547 1551 1552 1551 1550 1551 1550 1548 1547 1546 1542 1540 1537 1534 1531 1528 1527 1523 1519 1516 1513 1510 1507 1503
1478 1491 1495 1502 1507 1508 1512 1514 1518 1520 1524 1528 1532 1535 1536 1537 1537 1540 1540 1545 1548 1548 1548 1549 1548 1548 1545 1545 1543 1540 1537 1533 1531 1527 1525 1523 1519 1516 1513 1510 1505 1501 1499
1475 1487 1491 1501 1505 1504 1512 1512 1515 1520 1523 1527 1529 1532 1533 1536 1536 1537 1539 1543 1543 1545 1546 1546 1545 1543 1542 1541 1538 1536 1533 1531 1527 1523 1520 1518 1515 1511 1509 1506 1502 1498 1495
1477 1483 1491 1500 1503 1504 1509 1509 1513 1515 1520 1525 1527 1531 1532 1534 1535 1536 1536 1539 1539 1541 1542 1543 1544 1541 1539 1537 1535 1533 1530 1528 1522 1518 1516 1514 1510 1506 1501 1499 1498 1493 1490
1477 1480 1490 1494 1497 1505 1504 1507 1513 1513 1519 1525 1528 1532 1532 1534 1535 1534 1534 1536 1538 1538 1538 1539 1540 1537 1534 1533 1532 1529 1526 1522 1518 1515 1512 1509 1505 1501 1497 1495 1490 1488 1484
1473 1478 1487 1489 1496 1503 1505 1508 1513 1514 1519 1525 1529 1530 1529 1531 1533 1532 1533 1536 1537 1536 1534 1536 1537 1532 1531 1529 1529 1525 1520 1517 1513 1511 1507 1504 1500 1497 1491 1487 1484 1483 1480
1474 1480 1485 1490 1497 1502 1504 1507 1512 1515 1520 1523 1525 1529 1530 1531 1531 1533 1532 1534 1534 1532 1532 1534 1533 1530 1529 1526 1524 1519 1516 1513 1510 1508 1504 1501 1496 1492 1487 1484 1482 1481 1478
1474 1480 1486 1490 1495 1499 1504 1508 1511 1513 1516 1521 1526 1527 1529 1530 1531 1532 1532 1532 1531 1530 1529 1529 1529 1529 1528 1526 1522 1518 1514 1512 1507 1503 1499 1496 1493 1489 1483 1482 1481 1477 1472
1475 1483 1487 1489 1495 1501 1503 1507 1509 1513 1515 1519 1525 1526 1529 1530 1531 1531 1529 1528 1528 1529 1528 1525 1525 1525 1524 1521 1518 1513 1509 1505 1504 1501 1495 1492 1488 1483 1482 1480 1477 1471 1466
1476 1481 1485 1490 1498 1501 1503 1506 1510 1514 1517 1518 1521 1523 1527 1530 1529 1529 1528 1528 1528 1528 1525 1523 1522 1522 1520 1517 1512 1509 1507 1501 1499 1497 1491 1489 1486 1481 1478 1475 1470 1466 1462
1475 1481 1486 1492 1498 1500 1504 1508 1511 1514 1517 1519 1521 1523 1525 1526 1526 1527 1527 1527 1527 1524 1522 1520 1519 1517 1516 1513 1511 1507 1503 1497 1493 1495 1487 1483 1482 1479 1474 1470 1465 1462 1461
1477 1482 1489 1494 1498 1502 1505 1508 1512 1514 1517 1519 1522 1522 1523 1525 1524 1523 1524 1523 1523 1521 1520 1517 1516 1514 1510 1511 1506 1504 1503 1500 1492 1488 1485 1479 1478 1473 1470 1465 1461 1460 1458
1478 1484 1489 1495 1498 1502 1506 1509 1511 1514 1518 1520 1521 1522 1521 1522 1523 1524 1523 1521 1520 1518 1516 1516 1514 1513 1511 1509 1503 1503 1499 1494 1489 1488 1483 1476 1474 1468 1464 1463 1459 1458 1454
1478 1485 1491 1495 1499 1503 1507 1510 1512 1516 1518 1520 1519 1520 1520 1520 1522 1521 1520 1521 1517 1516 1513 1513 1513 1510 1509 1507 1505 1498 1495 1491 1486 1482 1481 1476 1471 1463 1460 1458 1456 1454 1450
1479 1485 1490 1496 1501 1504 1508 1510 1514 1516 1517 1519 1520 1519 1520 1519 1520 1520 1519 1517 1515 1513 1512 1510 1510 1509 1507 1506 1502 1498 1493 1490 1486 1479 1479 1474 1469 1465 1455 1452 1452 1449 1445
Wind_Speed
23 20 20 18 19 17 19 21 17 20 17 15 17 19 13 9 8 14 17 15 15 13 14 13 11 11 10 9 9 9 10 10 11 11 12 12 13 13 14 14 15 16 15
23 19 19 18 20 17 18 18 20 20 19 19 19 20 16 10 8 10 19 18 14 12 13 11 9 7 7 8 8 9 9 10 10 11 12 13 13 14 15 16 16 17 18
29 26 26 23 21 20 21 20 22 23 21 20 21 22 20 11 9 9 13 10 7 6 7 6 5 5 5 6 7 8 9 10 12 13 14 15 15 15 16 17 18 19 19
29 29 26 25 24 23 22 22 23 24 23 21 21 21 21 17 10 8 11 10 9 7 6 4 3 3 4 6 8 9 11 12 13 14 15 16 17 17 17 17 18 19 19
29 28 27 26 28 28 27 25 24 25 26 23 21 19 18 17 16 12 10 8 9 8 5 3 1 2 4 7 8 10 12 14 15 17 18 19 20 20 20 20 20 20 21
29 29 27 27 26 27 27 25 23 23 25 25 22 19 17 17 14 14 14 12 9 5 4 3 3 4 7 9 10 12 13 15 17 18 20 21 21 20 21 20 21 22 23
23 25 26 24 25 25 25 25 24 24 25 25 27 23 18 13 12 11 9 8 9 7 5 4 5 8 11 11 13 14 15 17 19 21 21 21 21 21 21 22 22 23 23
23 25 24 24 24 25 25 27 27 28 27 26 24 23 13 12 9 8 8 7 8 7 6 7 8 10 12 15 17 18 18 19 20 21 22 21 20 20 20 22 22 23 24
22 21 23 24 25 25 26 27 28 27 29 25 23 11 10 7 17 13 12 10 8 7 8 9 11 12 14 16 17 19 20 20 21 21 21 20 19 20 20 21 22 23 25
28 24 23 24 25 24 23 24 25 23 23 26 26 13 8 10 9 10 15 12 11 8 10 12 13 15 15 16 18 20 20 22 23 21 21 20 20 20 21 22 23 24 25
29 24 21 24 24 23 22 23 23 22 21 22 21 17 12 10 9 7 10 14 14 11 10 12 14 16 17 17 19 20 22 23 24 23 22 20 20 21 21 21 22 23 25
36 27 25 23 23 22 21 21 20 19 18 22 19 19 14 15 14 9 8 8 6 5 8 12 16 16 17 18 20 24 23 23 23 22 21 20 20 20 20 20 21 22 23
37 32 27 24 22 18 20 20 20 19 19 19 18 15 13 11 11 10 9 9 8 8 9 12 14 15 19 20 22 25 23 22 21 21 20 19 20 20 20 20 21 21 22
39 31 25 23 22 22 22 22 20 19 17 17 17 16 14 12 11 9 6 7 5 6 7 9 12 16 21 23 25 24 22 20 20 19 19 21 21 20 21 22 21 22 23
36 31 27 25 23 23 23 22 22 23 21 20 18 16 13 9 6 5 5 4 4 5 6 10 11 16 21 23 22 24 20 19 19 19 19 20 20 20 19 20 22 22 23
32 31 29 28 26 26 27 26 25 23 20 18 14 11 7 6 6 5 4 4 6 7 5 8 14 19 20 21 22 19 18 18 19 19 20 20 21 20 20 24 23 23 23
34 32 32 31 31 29 26 25 24 22 19 14 11 9 7 7 6 4 3 4 5 6 8 12 15 16 18 19 19 19 17 17 18 18 18 19 19 22 24 23 24 23 23
33 34 34 32 29 27 26 24 22 19 15 13 9 8 7 6 4 4 3 4 6 8 9 12 14 15 16 18 18 15 16 18 19 18 17 17 20 23 22 22 21 22 20
32 32 31 29 29 28 27 22 18 16 16 12 10 9 6 4 2 2 3 5 7 7 9 12 14 15 16 15 17 19 19 19 18 18 14 18 21 21 21 19 19 19 21
32 30 29 28 28 26 22 19 17 15 13 12 9 5 3 2 2 4 5 6 7 9 10 11 12 14 13 14 18 20 20 21 20 18 17 20 21 20 19 18 20 21 22
31 31 30 28 24 20 18 16 13 13 13 10 8 6 4 3 3 5 6 7 9 10 10 11 12 11 13 16 19 21 23 22 20 20 23 21 21 20 21 19 22 22 21
29 32 29 24 23 20 18 16 13 12 9 7 7 6 3 2 3 5 6 8 9 8 9 10 10 12 14 16 19 21 22 23 25 23 29 29 21 21 23 22 23 17 21
30 28 27 23 21 22 19 16 12 10 9 7 5 3 1 3 4 5 8 9 11 13 12 11 13 14 16 17 19 19 19 21 22 25 26 30 22 25 24 23 18 16 23
33 30 26 23 21 20 17 14 11 9 7 6 5 3 1 2 4 5 7 7 8 9 11 12 13 13 14 16 15 17 19 22 22 21 19 24 27 31 28 24 14 20 26
30 27 24 22 19 19 15 12 9 9 7 5 3 1 2 4 5 7 7 9 9 9 11 15 13 12 12 13 14 18 22 25 28 28 17 23 32 36 34 26 21 31 27
28 26 24 20 17 15 13 11 9 7 5 3 1 1 3 4 7 8 9 10 10 11 12 11 10 10 9 13 15 16 20 21 23 24 21 31 31 32 29 28 36 33 32
Wind_Direction
201 195 179 175 168 165 161 157 146 161 147 151 151 141 153 177 184 147 138 137 132 124 106 103 96 84 72 58 41 34 26 20 14 8 4 2 358 355 356 355 354 353 353
192 178 172 177 167 176 159 162 164 151 158 160 155 149 151 178 177 167 148 149 154 134 126 119 107 84 60 45 31 21 14 10 5 1 358 355 353 353 354 352 349 346 345
184 181 186 184 176 171 170 169 164 165 166 160 155 158 158 166 195 155 176 172 152 140 139 125 102 80 58 38 24 10 1 356 353 350 350 350 349 350 347 344 340 338 335
191 188 190 185 175 173 171 175 172 169 163 165 161 157 160 161 168 168 161 171 176 161 149 136 113 62 27 10 1 354 348 347 344 341 338 334 333 331 331 332 330 328 326
188 190 189 186 180 179 178 182 178 172 166 164 157 163 164 169 173 169 167 180 182 167 170 168 162 355 349 345 341 340 338 337 335 332 329 328 326 327 328 327 328 327 325
187 188 190 190 189 186 183 183 179 175 170 164 166 160 164 170 173 182 188 195 202 199 199 232 274 316 327 331 327 331 332 332 330 329 327 327 327 329 330 335 333 331 327
189 189 191 190 186 185 180 176 174 173 168 174 170 166 168 180 184 188 193 190 197 205 224 254 296 317 321 325 323 329 330 330 330 328 327 327 328 331 336 334 329 324 319
188 194 192 189 184 184 181 177 180 174 176 180 174 166 150 160 175 184 201 212 220 230 247 273 292 302 313 322 324 329 331 329 328 328 326 325 331 336 332 327 323 321 318
188 205 194 189 186 188 186 183 185 187 180 180 176 162 155 180 183 193 204 221 232 245 266 277 292 307 315 319 319 324 326 328 328 326 326 333 335 330 327 324 323 322 321
177 206 196 190 192 191 190 185 189 191 190 183 178 177 169 174 174 182 209 218 230 229 266 287 297 301 309 315 317 324 328 329 328 328 329 334 330 328 327 328 328 328 324
179 205 196 192 191 189 187 187 185 186 188 197 192 183 170 176 180 175 180 208 230 238 257 278 288 296 304 311 317 326 330 329 329 329 332 334 330 329 329 328 330 328 324
183 193 188 188 189 188 186 185 188 188 188 194 199 206 208 191 188 191 166 158 180 215 241 271 288 296 304 312 320 325 328 324 325 328 330 330 328 325 327 329 330 328 327
178 188 187 187 188 183 185 183 185 185 185 191 199 205 200 194 188 193 182 180 205 234 252 277 283 292 307 312 320 320 324 324 325 326 325 329 328 328 330 330 327 326 325
176 179 174 182 184 179 185 182 183 184 184 184 187 191 191 186 178 185 210 227 211 216 256 266 276 295 304 310 315 315 323 323 325 327 326 331 327 328 326 323 324 323 326
176 171 175 182 183 179 181 177 178 177 176 178 177 179 179 184 208 220 215 221 231 216 202 239 260 285 297 305 314 316 320 325 329 331 327 329 327 327 327 326 326 322 325
174 169 177 181 180 184 180 180 177 170 172 172 175 179 194 218 210 208 225 245 259 256 240 259 271 287 298 308 309 313 321 327 331 329 330 328 332 331 331 328 328 327 325
177 176 183 182 183 183 177 173 170 165 167 174 183 193 183 186 206 218 233 266 267 274 286 281 283 294 298 304 310 317 323 329 330 328 332 332 333 330 333 334 333 330 326
182 186 184 181 178 175 167 166 166 168 182 182 176 184 188 190 202 230 255 275 295 307 304 299 302 305 307 309 309 318 324 329 332 331 333 333 334 330 334 336 333 327 320
187 187 182 177 173 168 168 176 189 180 163 153 176 185 186 191 216 258 293 311 313 308 307 303 308 310 307 313 311 320 327 332 334 331 331 338 334 332 337 332 323 319 326
188 183 177 172 173 176 182 190 175 166 161 159 174 171 192 225 274 302 308 316 313 306 306 306 300 306 310 306 311 321 330 337 338 340 334 343 334 336 334 331 325 328 331
182 180 173 169 174 183 170 158 150 151 159 159 163 170 198 234 303 314 317 312 307 305 309 303 305 304 306 311 324 331 329 336 339 344 332 339 336 342 341 336 335 331 334
174 170 165 171 159 151 143 150 152 159 161 166 168 172 185 290 314 309 316 315 313 319 320 317 312 312 317 320 323 330 332 334 337 345 334 335 340 342 340 340 337 335 337
171 167 162 153 149 154 152 154 159 162 164 167 164 153 223 284 312 320 325 328 330 329 327 331 319 322 321 320 324 325 325 326 331 340 329 328 342 339 341 343 338 343 332
157 155 151 151 155 151 154 160 158 158 160 161 178 196 211 329 334 328 316 308 314 318 321 326 322 316 314 316 322 323 328 327 331 341 335 328 341 335 338 346 333 337 333
153 151 147 152 158 156 158 158 156 162 171 179 151 106 342 323 330 333 323 315 325 314 321 323 318 314 319 326 332 330 330 333 334 339 348 332 334 333 334 342 338 337 335
151 148 150 156 162 158 152 158 166 168 162 161 160 303 327 331 327 325 319 317 322 326 320 319 320 324 319 317 322 313 321 327 334 338 332 332 330 339 332 331 330 333 334